| time (UTC) | temp F | wind direction | speed MPH | gust MPH | rain 1hr in | rain 24hr in | rain mn in | humidity % | barometer mb |
| 20260510121115 | 47 | 32 | 1.0 | 3.0 | 0.00 | 0.00 | 0.00 | 69 | 1013.7 |
| 20260510120609 | 47 | 28 | 1.0 | 3.0 | 0.00 | 0.00 | 0.00 | 69 | 1013.7 |
| 20260510115555 | 46 | 47 | 1.0 | 4.0 | 0.00 | 0.00 | 0.00 | 69 | 1013.4 |
| 20260510115044 | 46 | 45 | 2.0 | 4.0 | 0.00 | 0.00 | 0.00 | 68 | 1013.4 |
| 20260510114539 | 46 | 54 | 1.0 | 4.0 | 0.00 | 0.00 | 0.00 | 68 | 1013.3 |
| 20260510114038 | 46 | 28 | 1.0 | 4.0 | 0.00 | 0.00 | 0.00 | 68 | 1013.3 |
| 20260510113531 | 46 | 355 | 2.0 | 4.0 | 0.00 | 0.00 | 0.00 | 68 | 1013.3 |
| 20260510113025 | 45 | 14 | 1.0 | 3.0 | 0.00 | 0.00 | 0.00 | 68 | 1012.9 |
| 20260510112520 | 45 | 34 | 1.0 | 3.0 | 0.00 | 0.00 | 0.00 | 69 | 1012.9 |
| 20260510112017 | 44 | 53 | 1.0 | 3.0 | 0.00 | 0.00 | 0.00 | 69 | 1012.9 |
| 20260510111519 | 44 | 5 | 1.0 | 4.0 | 0.00 | 0.00 | 0.00 | 69 | 1012.7 |
| 20260510111014 | 44 | 10 | 1.0 | 4.0 | 0.00 | 0.00 | 0.00 | 69 | 1012.7 |
| 20260510110513 | 44 | 355 | 2.0 | 4.0 | 0.00 | 0.00 | 0.00 | 69 | 1012.7 |
| 20260510110013 | 43 | 9 | 1.0 | 3.0 | 0.00 | 0.00 | 0.00 | 69 | 1012.4 |
| 20260510105512 | 43 | 17 | 1.0 | 3.0 | 0.00 | 0.00 | 0.00 | 69 | 1012.4 |
| 20260510105013 | 44 | 20 | 1.0 | 3.0 | 0.00 | 0.00 | 0.00 | 68 | 1012.4 |
| 20260510104733 | 44 | 20 | 1.0 | 3.0 | 0.00 | 0.00 | 0.00 | 68 | 1012.3 |
| 20260510104011 | 44 | 19 | 1.0 | 3.0 | 0.00 | 0.00 | 0.00 | 68 | 1012.3 |
| 20260510103510 | 44 | 48 | 1.0 | 3.0 | 0.00 | 0.00 | 0.00 | 67 | 1012.3 |
| 20260510103009 | 44 | 51 | 1.0 | 3.0 | 0.00 | 0.00 | 0.00 | 67 | 1012.2 |
| 20260510102731 | 44 | 5 | 1.0 | 3.0 | 0.00 | 0.00 | 0.00 | 67 | 1012.2 |
| 20260510102009 | 44 | 0 | 1.0 | 3.0 | 0.00 | 0.00 | 0.00 | 66 | 1012.2 |
| 20260510101508 | 44 | 44 | 1.0 | 3.0 | 0.00 | 0.00 | 0.00 | 66 | 1012.1 |
| 20260510101008 | 45 | 43 | 1.0 | 3.0 | 0.00 | 0.00 | 0.00 | 66 | 1012.1 |
| 20260510100736 | 45 | 17 | 1.0 | 3.0 | 0.00 | 0.00 | 0.00 | 66 | 1012.1 |
| 20260510100007 | 45 | 34 | 2.0 | 4.0 | 0.00 | 0.00 | 0.00 | 65 | 1011.8 |
| 20260510095507 | 45 | 28 | 2.0 | 4.0 | 0.00 | 0.00 | 0.00 | 65 | 1011.8 |
| 20260510095226 | 45 | 43 | 2.0 | 4.0 | 0.00 | 0.00 | 0.00 | 65 | 1011.8 |
| 20260510094500 | 45 | 26 | 2.0 | 5.0 | 0.00 | 0.00 | 0.00 | 65 | 1011.6 |
| 20260510093952 | 45 | 35 | 1.0 | 5.0 | 0.00 | 0.00 | 0.00 | 65 | 1011.6 |
| 20260510093447 | 46 | 26 | 2.0 | 5.0 | 0.00 | 0.00 | 0.00 | 64 | 1011.5 |
| 20260510092938 | 46 | 32 | 2.0 | 5.0 | 0.00 | 0.00 | 0.00 | 64 | 1011.5 |
| 20260510092435 | 46 | 46 | 2.0 | 8.0 | 0.00 | 0.00 | 0.00 | 64 | 1011.5 |
| 20260510091928 | 46 | 42 | 2.0 | 8.0 | 0.00 | 0.00 | 0.00 | 64 | 1011.4 |
| 20260510091422 | 46 | 5 | 2.0 | 7.0 | 0.00 | 0.00 | 0.00 | 64 | 1011.4 |
| 20260510090919 | 46 | 31 | 3.0 | 7.0 | 0.00 | 0.00 | 0.00 | 64 | 1011.4 |
| 20260510090419 | 46 | 36 | 3.0 | 7.0 | 0.00 | 0.00 | 0.00 | 64 | 1011.4 |
| 20260510085919 | 46 | 55 | 3.0 | 7.0 | 0.00 | 0.00 | 0.00 | 64 | 1011.4 |
| 20260510085418 | 46 | 350 | 2.0 | 5.0 | 0.00 | 0.00 | 0.00 | 65 | 1011.4 |
| 20260510084919 | 46 | 19 | 2.0 | 7.0 | 0.00 | 0.00 | 0.00 | 65 | 1011.3 |
| 20260510084418 | 46 | 44 | 3.0 | 7.0 | 0.00 | 0.00 | 0.00 | 65 | 1011.3 |
| 20260510083918 | 47 | 53 | 3.0 | 7.0 | 0.00 | 0.00 | 0.00 | 65 | 1011.3 |
| 20260510083421 | 47 | 26 | 2.0 | 7.0 | 0.00 | 0.00 | 0.00 | 66 | 1011.0 |
| 20260510082921 | 47 | 49 | 2.0 | 6.0 | 0.00 | 0.00 | 0.00 | 67 | 1011.0 |
| 20260510082415 | 47 | 32 | 2.0 | 5.0 | 0.00 | 0.00 | 0.00 | 67 | 1011.0 |
| 20260510082124 | 46 | 5 | 2.0 | 5.0 | 0.00 | 0.00 | 0.00 | 68 | 1010.9 |
| 20260510081352 | 46 | 5 | 2.0 | 5.0 | 0.00 | 0.00 | 0.00 | 69 | 1010.9 |
| 20260510081105 | 46 | 43 | 2.0 | 4.0 | 0.00 | 0.00 | 0.00 | 70 | 1010.9 |
| 20260510080336 | 46 | 52 | 1.0 | 5.0 | 0.00 | 0.00 | 0.00 | 71 | 1010.8 |
| 20260510075830 | 46 | 57 | 2.0 | 5.0 | 0.00 | 0.00 | 0.00 | 72 | 1010.8 |
| 20260510075320 | 46 | 42 | 3.0 | 8.0 | 0.00 | 0.00 | 0.00 | 73 | 1010.8 |
| 20260510074817 | 46 | 59 | 2.0 | 8.0 | 0.00 | 0.00 | 0.00 | 74 | 1010.3 |
| 20260510074311 | 46 | 9 | 2.0 | 5.0 | 0.00 | 0.00 | 0.00 | 75 | 1010.3 |
| 20260510073805 | 46 | 34 | 2.0 | 5.0 | 0.00 | 0.00 | 0.00 | 75 | 1010.3 |
| 20260510073258 | 46 | 41 | 1.0 | 3.0 | 0.00 | 0.00 | 0.00 | 76 | 1009.8 |
| 20260510072754 | 46 | 42 | 1.0 | 2.0 | 0.00 | 0.00 | 0.00 | 75 | 1009.8 |
| 20260510072248 | 46 | 42 | 0.0 | 2.0 | 0.00 | 0.00 | 0.00 | 74 | 1009.8 |
| 20260510071738 | 46 | 42 | 1.0 | 2.0 | 0.00 | 0.00 | 0.00 | 74 | 1009.7 |
| 20260510071235 | 46 | 42 | 1.0 | 2.0 | 0.00 | 0.00 | 0.00 | 74 | 1009.7 |
| 20260510070729 | 47 | 45 | 0.0 | 1.0 | 0.00 | 0.00 | 0.00 | 73 | 1009.7 |
| 20260510070224 | 47 | 45 | 1.0 | 2.0 | 0.00 | 0.00 | 0.00 | 73 | 1009.3 |
| 20260510065718 | 46 | 45 | 1.0 | 2.0 | 0.00 | 0.00 | 0.00 | 74 | 1009.3 |
| 20260510065203 | 46 | 45 | 0.0 | 2.0 | 0.00 | 0.00 | 0.00 | 73 | 1009.3 |
| 20260510065146 | 47 | 45 | 0.0 | 0.0 | 0.00 | 0.00 | 0.00 | 73 | 1009.3 |
| 20260510064420 | 47 | 45 | 0.0 | 0.0 | 0.00 | 0.00 | 0.00 | 73 | 1009.3 |
| 20260510063653 | 47 | 45 | 0.0 | 0.0 | 0.00 | 0.00 | 0.00 | 72 | 1009.3 |
| 20260510063148 | 47 | 45 | 0.0 | 0.0 | 0.00 | 0.00 | 0.00 | 72 | 1009.2 |
| 20260510063124 | 47 | 45 | 0.0 | 0.0 | 0.00 | 0.00 | 0.00 | 72 | 1009.2 |
| 20260510062400 | 48 | 45 | 0.0 | 0.0 | 0.00 | 0.00 | 0.00 | 72 | 1009.2 |
| 20260510061630 | 48 | 45 | 0.0 | 1.0 | 0.00 | 0.00 | 0.00 | 71 | 1009.2 |
| 20260510061124 | 48 | 45 | 0.0 | 1.0 | 0.00 | 0.00 | 0.00 | 71 | 1009.2 |
| 20260510060617 | 48 | 45 | 0.0 | 0.0 | 0.00 | 0.00 | 0.00 | 71 | 1009.2 |
| 20260510060112 | 48 | 45 | 0.0 | 0.0 | 0.00 | 0.00 | 0.00 | 71 | 1009.0 |
| 20260510055605 | 48 | 45 | 0.0 | 0.0 | 0.00 | 0.00 | 0.00 | 71 | 1009.0 |
| 20260510055059 | 48 | 45 | 0.0 | 0.0 | 0.00 | 0.00 | 0.00 | 70 | 1009.0 |
| 20260510054554 | 48 | 45 | 0.0 | 1.0 | 0.00 | 0.00 | 0.00 | 70 | 1008.7 |
| 20260510054307 | 48 | 45 | 0.0 | 1.0 | 0.00 | 0.00 | 0.00 | 70 | 1008.7 |
| 20260510053541 | 48 | 45 | 0.0 | 0.0 | 0.00 | 0.00 | 0.00 | 70 | 1008.7 |
| 20260510053034 | 48 | 45 | 0.0 | 0.0 | 0.00 | 0.00 | 0.00 | 70 | 1008.5 |
| 20260510052523 | 48 | 45 | 0.0 | 0.0 | 0.00 | 0.00 | 0.00 | 70 | 1008.5 |
| 20260510052022 | 48 | 45 | 0.0 | 0.0 | 0.00 | 0.00 | 0.00 | 70 | 1008.5 |
| 20260510051518 | 49 | 45 | 0.0 | 0.0 | 0.00 | 0.00 | 0.00 | 70 | 1008.4 |
| 20260510051010 | 49 | 45 | 0.0 | 0.0 | 0.00 | 0.00 | 0.00 | 70 | 1008.4 |
| 20260510050508 | 49 | 45 | 0.0 | 0.0 | 0.00 | 0.00 | 0.00 | 70 | 1008.4 |
| 20260510050004 | 49 | 45 | 0.0 | 0.0 | 0.00 | 0.00 | 0.00 | 69 | 1008.2 |
| 20260510045455 | 49 | 45 | 0.0 | 0.0 | 0.00 | 0.00 | 0.00 | 69 | 1008.2 |
| 20260510044942 | 50 | 45 | 0.0 | 0.0 | 0.00 | 0.00 | 0.00 | 68 | 1007.9 |
| 20260510044710 | 50 | 45 | 0.0 | 0.0 | 0.00 | 0.00 | 0.00 | 68 | 1007.9 |
| 20260510043936 | 50 | 45 | 0.0 | 0.0 | 0.00 | 0.00 | 0.00 | 68 | 1007.9 |
| 20260510043658 | 50 | 45 | 0.0 | 0.0 | 0.00 | 0.00 | 0.00 | 67 | 1007.7 |
| 20260510042926 | 50 | 45 | 0.0 | 0.0 | 0.00 | 0.00 | 0.00 | 67 | 1007.7 |
| 20260510042419 | 51 | 45 | 0.0 | 0.0 | 0.00 | 0.00 | 0.00 | 67 | 1007.7 |
| 20260510041913 | 51 | 45 | 0.0 | 0.0 | 0.00 | 0.00 | 0.00 | 66 | 1007.6 |
| 20260510041401 | 51 | 45 | 0.0 | 0.0 | 0.00 | 0.00 | 0.00 | 65 | 1007.6 |
| 20260510040901 | 51 | 45 | 0.0 | 0.0 | 0.00 | 0.00 | 0.00 | 65 | 1007.6 |
| 20260510040616 | 52 | 45 | 1.0 | 3.0 | 0.00 | 0.00 | 0.00 | 64 | 1007.2 |
| 20260510035850 | 52 | 45 | 1.0 | 3.0 | 0.00 | 0.00 | 0.00 | 64 | 1007.2 |
| 20260510035342 | 52 | 43 | 1.0 | 3.0 | 0.00 | 0.00 | 0.00 | 64 | 1007.2 |
| 20260510034831 | 52 | 43 | 1.0 | 3.0 | 0.00 | 0.00 | 0.00 | 64 | 1007.1 |
| 20260510034318 | 52 | 46 | 1.0 | 3.0 | 0.00 | 0.00 | 0.00 | 64 | 1007.1 |
| 20260510033806 | 52 | 46 | 1.0 | 3.0 | 0.00 | 0.00 | 0.00 | 63 | 1007.1 |
| 20260510033255 | 53 | 46 | 1.0 | 2.0 | 0.00 | 0.00 | 0.00 | 63 | 1007.0 |
| 20260510032743 | 53 | 46 | 1.0 | 3.0 | 0.00 | 0.00 | 0.00 | 62 | 1007.0 |
| 20260510032230 | 53 | 46 | 1.0 | 3.0 | 0.00 | 0.00 | 0.00 | 61 | 1007.0 |
| 20260510031718 | 53 | 43 | 1.0 | 3.0 | 0.00 | 0.00 | 0.00 | 61 | 1007.0 |
| 20260510031244 | 54 | 46 | 2.0 | 4.0 | 0.00 | 0.00 | 0.00 | 60 | 1007.0 |
| 20260510030407 | 54 | 54 | 1.0 | 5.0 | 0.00 | 0.00 | 0.00 | 59 | 1006.7 |
| 20260510025638 | 54 | 30 | 2.0 | 4.0 | 0.00 | 0.00 | 0.00 | 58 | 1006.7 |
| 20260510025353 | 55 | 47 | 2.0 | 5.0 | 0.00 | 0.00 | 0.00 | 58 | 1006.7 |
| 20260510024623 | 55 | 50 | 2.0 | 5.0 | 0.00 | 0.00 | 0.00 | 57 | 1006.6 |
| 20260510024121 | 55 | 58 | 2.0 | 4.0 | 0.00 | 0.00 | 0.00 | 56 | 1006.6 |
| 20260510023614 | 55 | 67 | 3.0 | 7.0 | 0.00 | 0.00 | 0.00 | 56 | 1006.6 |
| 20260510023108 | 56 | 51 | 3.0 | 7.0 | 0.00 | 0.00 | 0.00 | 55 | 1006.3 |
| 20260510022820 | 56 | 58 | 3.0 | 8.0 | 0.00 | 0.00 | 0.00 | 55 | 1006.3 |
| 20260510022315 | 56 | 48 | 3.0 | 8.0 | 0.00 | 0.00 | 0.00 | 55 | 1006.3 |
| 20260510021551 | 56 | 44 | 4.0 | 10.0 | 0.00 | 0.00 | 0.00 | 54 | 1005.9 |
| 20260510021307 | 57 | 51 | 4.0 | 10.0 | 0.00 | 0.00 | 0.00 | 54 | 1005.9 |
| 20260510020538 | 57 | 19 | 5.0 | 10.0 | 0.00 | 0.00 | 0.00 | 54 | 1005.9 |
| 20260510020032 | 57 | 44 | 5.0 | 10.0 | 0.00 | 0.00 | 0.00 | 53 | 1005.5 |
| 20260510015745 | 58 | 57 | 4.0 | 10.0 | 0.00 | 0.00 | 0.00 | 53 | 1005.5 |
| 20260510015011 | 58 | 60 | 3.0 | 10.0 | 0.00 | 0.00 | 0.00 | 53 | 1005.5 |
| 20260510014511 | 58 | 62 | 4.0 | 13.0 | 0.00 | 0.00 | 0.00 | 51 | 1005.2 |
| 20260510014005 | 59 | 38 | 5.0 | 13.0 | 0.00 | 0.00 | 0.00 | 50 | 1005.2 |
| 20260510013459 | 60 | 46 | 5.0 | 13.0 | 0.00 | 0.00 | 0.00 | 50 | 1004.5 |
| 20260510012953 | 61 | 60 | 4.0 | 13.0 | 0.00 | 0.00 | 0.00 | 49 | 1004.5 |
| 20260510012447 | 63 | 69 | 4.0 | 11.0 | 0.00 | 0.00 | 0.00 | 48 | 1004.5 |
| 20260510012205 | 65 | 46 | 3.0 | 11.0 | 0.00 | 0.00 | 0.00 | 47 | 1003.8 |
| 20260510011431 | 66 | 242 | 2.0 | 7.0 | 0.00 | 0.00 | 0.00 | 51 | 1003.8 |
| 20260510010929 | 66 | 246 | 3.0 | 9.0 | 0.00 | 0.00 | 0.00 | 51 | 1003.8 |
| 20260510010423 | 67 | 304 | 4.0 | 10.0 | 0.00 | 0.00 | 0.00 | 50 | 1003.4 |
| 20260510005915 | 67 | 274 | 4.0 | 10.0 | 0.00 | 0.00 | 0.00 | 50 | 1003.4 |
| 20260510005629 | 67 | 238 | 4.0 | 7.0 | 0.00 | 0.00 | 0.00 | 49 | 1003.4 |
| 20260510005125 | 67 | 244 | 4.0 | 9.0 | 0.00 | 0.00 | 0.00 | 49 | 1003.3 |
| 20260510004358 | 68 | 252 | 5.0 | 11.0 | 0.00 | 0.00 | 0.00 | 48 | 1003.3 |
| 20260510003855 | 68 | 244 | 5.0 | 11.0 | 0.00 | 0.00 | 0.00 | 47 | 1003.3 |
| 20260510003354 | 68 | 258 | 4.0 | 12.0 | 0.00 | 0.00 | 0.00 | 47 | 1003.0 |
| 20260510002856 | 68 | 251 | 5.0 | 12.0 | 0.00 | 0.00 | 0.00 | 47 | 1003.0 |
| 20260510002613 | 68 | 264 | 5.0 | 12.0 | 0.00 | 0.00 | 0.00 | 47 | 1003.0 |
| 20260510001855 | 68 | 286 | 4.0 | 12.0 | 0.00 | 0.00 | 0.00 | 47 | 1002.9 |
| 20260510001840 | 69 | 213 | 4.0 | 11.0 | 0.00 | 0.00 | 0.00 | 47 | 1002.9 |
| 20260510000855 | 69 | 246 | 5.0 | 11.0 | 0.00 | 0.00 | 0.00 | 46 | 1002.9 |
| 20260510000356 | 69 | 235 | 7.0 | 15.0 | 0.00 | 0.00 | 0.00 | 45 | 1002.7 |
| 20260510000348 | 69 | 232 | 7.0 | 17.0 | 0.00 | 0.00 | 0.00 | 45 | 1002.7 |
| 20260509235618 | 70 | 231 | 7.0 | 17.0 | 0.00 | 0.00 | 0.00 | 44 | 1002.7 |
| 20260509234855 | 70 | 220 | 7.0 | 16.0 | 0.00 | 0.00 | 0.00 | 44 | 1002.5 |
| 20260509234354 | 70 | 275 | 6.0 | 16.0 | 0.00 | 0.00 | 0.00 | 44 | 1002.5 |
| 20260509233855 | 70 | 257 | 7.0 | 16.0 | 0.00 | 0.00 | 0.00 | 44 | 1002.5 |
| 20260509233355 | 70 | 254 | 8.0 | 16.0 | 0.00 | 0.00 | 0.00 | 43 | 1002.4 |
| 20260509232856 | 70 | 284 | 8.0 | 16.0 | 0.00 | 0.00 | 0.00 | 43 | 1002.4 |
| 20260509232350 | 71 | 263 | 7.0 | 16.0 | 0.00 | 0.00 | 0.00 | 42 | 1002.4 |
| 20260509232100 | 71 | 252 | 6.0 | 17.0 | 0.00 | 0.00 | 0.00 | 42 | 1002.3 |
| 20260509231558 | 71 | 218 | 7.0 | 17.0 | 0.00 | 0.00 | 0.00 | 42 | 1002.3 |
| 20260509230838 | 71 | 249 | 7.0 | 16.0 | 0.00 | 0.00 | 0.00 | 42 | 1002.3 |
| 20260509230339 | 71 | 256 | 7.0 | 16.0 | 0.00 | 0.00 | 0.00 | 41 | 1002.0 |
| 20260509225838 | 71 | 198 | 7.0 | 16.0 | 0.00 | 0.00 | 0.00 | 41 | 1002.0 |
| 20260509225338 | 72 | 273 | 7.0 | 15.0 | 0.00 | 0.00 | 0.00 | 40 | 1002.0 |
| 20260509224838 | 72 | 236 | 7.0 | 15.0 | 0.00 | 0.00 | 0.00 | 40 | 1001.8 |
| 20260509224606 | 72 | 244 | 6.0 | 16.0 | 0.00 | 0.00 | 0.00 | 40 | 1001.8 |
| 20260509223838 | 72 | 263 | 7.0 | 16.0 | 0.00 | 0.00 | 0.00 | 40 | 1001.8 |
| 20260509223602 | 71 | 274 | 8.0 | 15.0 | 0.00 | 0.00 | 0.00 | 40 | 1001.8 |
| 20260509223044 | 71 | 316 | 8.0 | 15.0 | 0.00 | 0.00 | 0.00 | 40 | 1001.8 |
| 20260509222322 | 71 | 273 | 8.0 | 20.0 | 0.00 | 0.00 | 0.00 | 40 | 1001.8 |
| 20260509221816 | 71 | 235 | 8.0 | 20.0 | 0.00 | 0.00 | 0.00 | 40 | 1001.6 |
| 20260509221310 | 71 | 232 | 9.0 | 19.0 | 0.00 | 0.00 | 0.00 | 39 | 1001.6 |
| 20260509221029 | 71 | 220 | 9.0 | 19.0 | 0.00 | 0.00 | 0.00 | 39 | 1001.6 |
| 20260509220254 | 71 | 228 | 8.0 | 19.0 | 0.00 | 0.00 | 0.00 | 39 | 1001.3 |
| 20260509215753 | 71 | 308 | 9.0 | 19.0 | 0.00 | 0.00 | 0.00 | 39 | 1001.3 |
| 20260509215247 | 72 | 290 | 9.0 | 19.0 | 0.00 | 0.00 | 0.00 | 38 | 1001.3 |
| 20260509214740 | 72 | 313 | 7.0 | 18.0 | 0.00 | 0.00 | 0.00 | 38 | 1001.2 |
| 20260509214458 | 72 | 289 | 8.0 | 16.0 | 0.00 | 0.00 | 0.00 | 39 | 1001.2 |
| 20260509213948 | 72 | 285 | 8.0 | 20.0 | 0.00 | 0.00 | 0.00 | 39 | 1001.2 |
| 20260509213443 | 72 | 237 | 6.0 | 20.0 | 0.00 | 0.00 | 0.00 | 38 | 1001.1 |
| 20260509212713 | 72 | 232 | 5.0 | 13.0 | 0.00 | 0.00 | 0.00 | 37 | 1001.1 |
| 20260509212210 | 72 | 292 | 5.0 | 13.0 | 0.00 | 0.00 | 0.00 | 37 | 1001.1 |
| 20260509211704 | 72 | 230 | 6.0 | 16.0 | 0.00 | 0.00 | 0.00 | 36 | 1001.1 |
| 20260509211154 | 72 | 209 | 7.0 | 16.0 | 0.00 | 0.00 | 0.00 | 36 | 1001.1 |
| 20260509210649 | 72 | 229 | 6.0 | 14.0 | 0.00 | 0.00 | 0.00 | 36 | 1001.1 |
| 20260509210409 | 72 | 254 | 7.0 | 14.0 | 0.00 | 0.00 | 0.00 | 37 | 1000.9 |
| 20260509205632 | 72 | 244 | 7.0 | 17.0 | 0.00 | 0.00 | 0.00 | 38 | 1000.9 |
| 20260509205130 | 72 | 266 | 7.0 | 17.0 | 0.00 | 0.00 | 0.00 | 37 | 1000.9 |
| 20260509204624 | 72 | 309 | 6.0 | 15.0 | 0.00 | 0.00 | 0.00 | 37 | 1001.0 |
| 20260509204117 | 72 | 273 | 6.0 | 18.0 | 0.00 | 0.00 | 0.00 | 38 | 1001.0 |
| 20260509203833 | 72 | 223 | 5.0 | 18.0 | 0.00 | 0.00 | 0.00 | 36 | 1001.0 |
| 20260509203107 | 72 | 260 | 4.0 | 8.0 | 0.00 | 0.00 | 0.00 | 36 | 1000.9 |
| 20260509202601 | 72 | 210 | 4.0 | 9.0 | 0.00 | 0.00 | 0.00 | 36 | 1000.9 |
| 20260509202050 | 72 | 273 | 6.0 | 13.0 | 0.00 | 0.00 | 0.00 | 35 | 1000.9 |
| 20260509201548 | 72 | 309 | 7.0 | 19.0 | 0.00 | 0.00 | 0.00 | 34 | 1001.0 |
| 20260509201048 | 73 | 241 | 7.0 | 19.0 | 0.00 | 0.00 | 0.00 | 33 | 1001.0 |
| 20260509200547 | 73 | 306 | 6.0 | 15.0 | 0.00 | 0.00 | 0.00 | 33 | 1001.0 |
| 20260509200052 | 73 | 277 | 5.0 | 14.0 | 0.00 | 0.00 | 0.00 | 34 | 1000.8 |
| 20260509195546 | 73 | 304 | 5.0 | 14.0 | 0.00 | 0.00 | 0.00 | 33 | 1000.8 |
| 20260509195045 | 74 | 275 | 6.0 | 16.0 | 0.00 | 0.00 | 0.00 | 34 | 1000.8 |
| 20260509194546 | 74 | 235 | 7.0 | 16.0 | 0.00 | 0.00 | 0.00 | 32 | 1000.8 |
| 20260509194045 | 74 | 284 | 5.0 | 16.0 | 0.00 | 0.00 | 0.00 | 34 | 1000.8 |
| 20260509193542 | 74 | 227 | 5.0 | 13.0 | 0.00 | 0.00 | 0.00 | 34 | 1000.8 |
| 20260509193305 | 74 | 290 | 5.0 | 11.0 | 0.00 | 0.00 | 0.00 | 34 | 1000.7 |
| 20260509192542 | 74 | 239 | 5.0 | 10.0 | 0.00 | 0.00 | 0.00 | 35 | 1000.7 |
| 20260509192040 | 74 | 240 | 5.0 | 10.0 | 0.00 | 0.00 | 0.00 | 35 | 1000.7 |
| 20260509191540 | 73 | 284 | 6.0 | 12.0 | 0.00 | 0.00 | 0.00 | 38 | 1001.1 |
| 20260509191040 | 72 | 257 | 5.0 | 16.0 | 0.00 | 0.00 | 0.00 | 40 | 1001.1 |
| 20260509190542 | 73 | 251 | 5.0 | 16.0 | 0.00 | 0.00 | 0.00 | 41 | 1001.1 |
| 20260509190042 | 73 | 205 | 7.0 | 17.0 | 0.00 | 0.00 | 0.00 | 42 | 1000.9 |
| 20260509185539 | 73 | 223 | 8.0 | 18.0 | 0.00 | 0.00 | 0.00 | 41 | 1000.9 |
| 20260509185307 | 74 | 249 | 8.0 | 19.0 | 0.00 | 0.00 | 0.00 | 41 | 1000.9 |
| 20260509184539 | 73 | 271 | 7.0 | 19.0 | 0.00 | 0.00 | 0.00 | 41 | 1000.8 |
| 20260509184039 | 73 | 234 | 7.0 | 18.0 | 0.00 | 0.00 | 0.00 | 42 | 1000.8 |
| 20260509183800 | 73 | 246 | 6.0 | 16.0 | 0.00 | 0.00 | 0.00 | 42 | 1000.8 |
| 20260509183039 | 72 | 257 | 7.0 | 16.0 | 0.00 | 0.00 | 0.00 | 43 | 1000.7 |
| 20260509182542 | 72 | 258 | 8.0 | 20.0 | 0.00 | 0.00 | 0.00 | 44 | 1000.7 |
| 20260509182043 | 72 | 265 | 7.0 | 20.0 | 0.00 | 0.00 | 0.00 | 45 | 1000.7 |
| 20260509181542 | 71 | 235 | 6.0 | 14.0 | 0.00 | 0.00 | 0.00 | 46 | 1000.8 |
| 20260509181040 | 71 | 294 | 5.0 | 11.0 | 0.00 | 0.00 | 0.00 | 48 | 1000.8 |
| 20260509180534 | 71 | 242 | 7.0 | 16.0 | 0.00 | 0.00 | 0.00 | 48 | 1000.8 |
| 20260509180028 | 71 | 227 | 8.0 | 19.0 | 0.00 | 0.00 | 0.00 | 49 | 1001.2 |
| 20260509175743 | 71 | 236 | 8.0 | 19.0 | 0.00 | 0.00 | 0.00 | 48 | 1001.2 |
| 20260509175015 | 70 | 223 | 7.0 | 14.0 | 0.00 | 0.00 | 0.00 | 49 | 1001.2 |
| 20260509174509 | 71 | 211 | 6.0 | 14.0 | 0.00 | 0.00 | 0.00 | 50 | 1001.2 |
| 20260509174004 | 70 | 218 | 7.0 | 17.0 | 0.00 | 0.00 | 0.00 | 51 | 1001.2 |
| 20260509173457 | 70 | 223 | 8.0 | 17.0 | 0.00 | 0.00 | 0.00 | 50 | 1001.0 |
| 20260509172958 | 70 | 227 | 7.0 | 17.0 | 0.00 | 0.00 | 0.00 | 49 | 1001.0 |
| 20260509172450 | 70 | 303 | 6.0 | 15.0 | 0.00 | 0.00 | 0.00 | 50 | 1001.0 |
| 20260509171938 | 69 | 225 | 6.0 | 15.0 | 0.00 | 0.00 | 0.00 | 52 | 1001.2 |
| 20260509171702 | 69 | 267 | 7.0 | 14.0 | 0.00 | 0.00 | 0.00 | 55 | 1001.2 |
| 20260509170926 | 69 | 219 | 7.0 | 14.0 | 0.00 | 0.00 | 0.00 | 54 | 1001.2 |
| 20260509170644 | 68 | 258 | 6.0 | 14.0 | 0.00 | 0.00 | 0.00 | 55 | 1001.2 |
| 20260509165910 | 68 | 265 | 7.0 | 18.0 | 0.00 | 0.00 | 0.00 | 58 | 1001.2 |
| 20260509165408 | 67 | 208 | 6.0 | 18.0 | 0.00 | 0.00 | 0.00 | 62 | 1001.2 |
| 20260509165123 | 67 | 238 | 6.0 | 14.0 | 0.00 | 0.00 | 0.00 | 64 | 1001.2 |
| 20260509164355 | 67 | 211 | 7.0 | 14.0 | 0.00 | 0.00 | 0.00 | 64 | 1001.2 |
| 20260509164109 | 66 | 253 | 6.0 | 13.0 | 0.00 | 0.00 | 0.00 | 63 | 1001.2 |
| 20260509163340 | 66 | 247 | 6.0 | 14.0 | 0.00 | 0.00 | 0.00 | 64 | 1001.1 |
| 20260509162839 | 66 | 243 | 6.0 | 14.0 | 0.00 | 0.00 | 0.00 | 63 | 1001.1 |
| 20260509162558 | 65 | 239 | 8.0 | 15.0 | 0.00 | 0.00 | 0.00 | 67 | 1001.1 |
| 20260509162054 | 65 | 230 | 7.0 | 15.0 | 0.00 | 0.00 | 0.00 | 68 | 1001.2 |
| 20260509161335 | 65 | 221 | 7.0 | 15.0 | 0.00 | 0.00 | 0.00 | 68 | 1001.2 |
| 20260509160835 | 64 | 222 | 7.0 | 15.0 | 0.00 | 0.00 | 0.00 | 66 | 1001.2 |
| 20260509160336 | 64 | 225 | 7.0 | 17.0 | 0.00 | 0.00 | 0.00 | 70 | 1001.5 |
| 20260509160054 | 64 | 245 | 7.0 | 17.0 | 0.00 | 0.00 | 0.00 | 69 | 1001.5 |
| 20260509155335 | 64 | 233 | 7.0 | 16.0 | 0.00 | 0.00 | 0.00 | 70 | 1001.5 |
| 20260509154836 | 63 | 230 | 6.0 | 14.0 | 0.00 | 0.00 | 0.00 | 70 | 1001.5 |
| 20260509154334 | 63 | 240 | 6.0 | 16.0 | 0.00 | 0.00 | 0.00 | 72 | 1001.5 |
| 20260509153838 | 63 | 252 | 7.0 | 16.0 | 0.00 | 0.00 | 0.00 | 72 | 1001.5 |
| 20260509153334 | 62 | 227 | 6.0 | 16.0 | 0.00 | 0.00 | 0.00 | 72 | 1001.6 |
| 20260509152835 | 62 | 235 | 6.0 | 13.0 | 0.00 | 0.00 | 0.00 | 72 | 1001.6 |
| 20260509152831 | 62 | 294 | 6.0 | 14.0 | 0.00 | 0.00 | 0.00 | 72 | 1001.6 |
| 20260509151835 | 62 | 234 | 7.0 | 14.0 | 0.00 | 0.00 | 0.00 | 74 | 1001.3 |
| 20260509151555 | 61 | 190 | 6.0 | 13.0 | 0.00 | 0.00 | 0.00 | 75 | 1001.3 |
| 20260509150836 | 61 | 263 | 6.0 | 12.0 | 0.00 | 0.00 | 0.00 | 76 | 1001.3 |
| 20260509150329 | 60 | 215 | 6.0 | 12.0 | 0.00 | 0.00 | 0.00 | 77 | 1001.3 |
| 20260509150041 | 60 | 192 | 5.0 | 11.0 | 0.00 | 0.00 | 0.00 | 78 | 1001.3 |
| 20260509145319 | 59 | 218 | 6.0 | 14.0 | 0.00 | 0.00 | 0.00 | 79 | 1001.3 |
| 20260509144819 | 58 | 229 | 7.0 | 14.0 | 0.00 | 0.00 | 0.00 | 79 | 1001.3 |
| 20260509144538 | 58 | 243 | 7.0 | 14.0 | 0.00 | 0.00 | 0.00 | 78 | 1001.3 |
| 20260509143819 | 58 | 227 | 7.0 | 15.0 | 0.00 | 0.00 | 0.00 | 79 | 1001.3 |
| 20260509143536 | 58 | 241 | 7.0 | 15.0 | 0.00 | 0.00 | 0.00 | 79 | 1001.4 |
| 20260509142818 | 58 | 263 | 7.0 | 18.0 | 0.00 | 0.00 | 0.00 | 78 | 1001.4 |
| 20260509142539 | 58 | 229 | 6.0 | 18.0 | 0.00 | 0.00 | 0.00 | 79 | 1001.4 |
| 20260509141818 | 58 | 241 | 6.0 | 13.0 | 0.00 | 0.00 | 0.00 | 79 | 1001.2 |
| 20260509141313 | 58 | 245 | 7.0 | 14.0 | 0.00 | 0.00 | 0.00 | 80 | 1001.2 |
| 20260509140804 | 57 | 221 | 7.0 | 14.0 | 0.00 | 0.00 | 0.00 | 82 | 1001.2 |
| 20260509140253 | 57 | 232 | 7.0 | 14.0 | 0.00 | 0.00 | 0.00 | 82 | 1001.2 |
| 20260509135752 | 56 | 252 | 7.0 | 15.0 | 0.00 | 0.00 | 0.00 | 84 | 1001.2 |
| 20260509135246 | 56 | 241 | 7.0 | 15.0 | 0.00 | 0.00 | 0.00 | 85 | 1001.2 |
| 20260509134741 | 55 | 223 | 7.0 | 14.0 | 0.00 | 0.00 | 0.00 | 86 | 1001.3 |
| 20260509134234 | 55 | 206 | 7.0 | 14.0 | 0.00 | 0.00 | 0.00 | 87 | 1001.3 |
| 20260509133724 | 54 | 221 | 7.0 | 13.0 | 0.00 | 0.00 | 0.00 | 89 | 1001.3 |
| 20260509133224 | 54 | 224 | 7.0 | 13.0 | 0.00 | 0.00 | 0.00 | 90 | 1001.4 |
| 20260509132716 | 53 | 231 | 7.0 | 14.0 | 0.00 | 0.00 | 0.00 | 91 | 1001.4 |
| 20260509132210 | 53 | 218 | 6.0 | 14.0 | 0.00 | 0.00 | 0.00 | 91 | 1001.4 |
| 20260509131704 | 53 | 225 | 6.0 | 14.0 | 0.00 | 0.00 | 0.00 | 92 | 1001.3 |
| 20260509131158 | 52 | 240 | 6.0 | 15.0 | 0.00 | 0.00 | 0.00 | 92 | 1001.3 |
| 20260509130652 | 52 | 231 | 5.0 | 15.0 | 0.00 | 0.00 | 0.00 | 93 | 1001.3 |
| 20260509130147 | 51 | 233 | 6.0 | 14.0 | 0.00 | 0.00 | 0.00 | 93 | 1001.3 |
| 20260509125641 | 51 | 252 | 7.0 | 14.0 | 0.00 | 0.00 | 0.00 | 92 | 1001.3 |
| 20260509125134 | 51 | 217 | 7.0 | 12.0 | 0.00 | 0.00 | 0.00 | 92 | 1001.3 |
| 20260509124629 | 51 | 246 | 8.0 | 13.0 | 0.00 | 0.00 | 0.00 | 93 | 1001.5 |
| 20260509124342 | 50 | 223 | 7.0 | 13.0 | 0.00 | 0.00 | 0.00 | 92 | 1001.5 |
| 20260509123611 | 50 | 242 | 6.0 | 12.0 | 0.00 | 0.00 | 0.00 | 92 | 1001.5 |
| 20260509123110 | 50 | 225 | 6.0 | 11.0 | 0.00 | 0.00 | 0.00 | 92 | 1001.6 |
| 20260509122605 | 50 | 215 | 6.0 | 12.0 | 0.00 | 0.00 | 0.00 | 92 | 1001.6 |
| 20260509122057 | 50 | 242 | 6.0 | 12.0 | 0.00 | 0.00 | 0.00 | 92 | 1001.6 |
| 20260509121817 | 50 | 225 | 5.0 | 11.0 | 0.00 | 0.00 | 0.00 | 92 | 1001.3 |